Location: All Nations United Methodist Church
(33.0215°N, 96.7483°W)
Time: 15:37:21
(UTC+00:00)

H-2A R/B - Pass Details

Date: 24 January 2021
Orbit: 529 x 652 km, 98.3° (Epoch: 06 March)

Event Time Altitude Azimuth Distance (km) Brightness Sun altitude
Rises 12:40:26 0° 11° (NNE) 2,971 6.0 -10.0°
Reaches altitude 10° 12:42:39 10° 11° (NNE) 2,061 5.2 -9.6°
Maximum altitude 12:47:10 86° 283° (WNW) 657 2.6 -8.6°
Drops below altitude 10° 12:51:38 10° 195° (SSW) 2,035 5.3 -7.8°
Sets 12:53:48 0° 195° (SSW) 2,931 6.1 -7.3°
